Weather History for St. Petersburg Airport, FL

Change the Weather History Date:

Saturday, November 19, 2011

  Actual Average Record
Temperature  
Mean Temperature 75 °F -  
Max Temperature 82 °F 78 °F 87 °F (1974)
Min Temperature 68 °F 63 °F 40 °F (1951)
Cooling Degree Days 10    
Growing Degree Days 25 (Base 50)    
Moisture  
Dew Point 63 °F    
Average Humidity 72    
Maximum Humidity 84    
Minimum Humidity 58    
Precipitation  
Precipitation 0.00 in - - ()
Sea Level Pressure  
Sea Level Pressure 30.20 in    
Wind  
Wind Speed 9 mph (East)    
Max Wind Speed 13 mph    
Max Gust Speed -    
Visibility 10 miles    
Events      
Averages and records for this station are not official NWS values.
T = Trace of Precipitation, MM = Missing Value Source: NWS Daily Summary

Daily Weather History Graph

Daily Weather History Graph

Search for Another Location

Airport:

Trip Planner

Search our weather history database for the weather conditions in past years. The results will help you decide how hot, cold, wet, or windy it might be!

Date:

Astronomy

Nov. 19, 2011 Rise Set
Actual Time 6:55 AM EST 5:36 PM EST
Civil Twilight 6:30 AM EST 6:01 PM EST
Nautical Twilight 6:01 AM EST 6:30 PM EST
Astronomical Twilight 5:33 AM EST 6:58 PM EST
Moon 12:46 AM EST (11/19) 1:25 PM EST (11/19)
Length of Visible Light 11h 31m
Length of Day
10h 41m
Last Quarter, 38% of the Moon is Illuminated
Nov 19
Last Quarter
Nov 25
New
Dec 2
First Quarter
Dec 10
Full
Dec 17
Last Quarter

Hourly Weather History & Observations

Time (EST) Temp. Heat Index Dew Point Humidity Pressure Visibility Wind Dir Wind Speed Gust Speed Precip Events Conditions
12:53 AM 69.1 °F - 57.9 °F 68% 30.19 in 10.0 mi ENE 11.5 mph - N/A   Overcast
1:53 AM 69.1 °F - 57.9 °F 68% 30.18 in 10.0 mi ENE 9.2 mph - N/A   Overcast
2:53 AM 68.0 °F - 57.9 °F 70% 30.18 in 10.0 mi ENE 10.4 mph - 0.00 in   Overcast
3:53 AM 68.0 °F - 59.0 °F 73% 30.17 in 10.0 mi ENE 10.4 mph - N/A   Overcast
4:53 AM 68.0 °F - 59.0 °F 73% 30.17 in 10.0 mi ENE 10.4 mph - N/A   Overcast
5:53 AM 69.1 °F - 60.1 °F 73% 30.19 in 10.0 mi ENE 6.9 mph - N/A   Overcast
6:53 AM 69.1 °F - 60.1 °F 73% 30.20 in 10.0 mi ENE 8.1 mph - N/A   Overcast
7:53 AM 69.1 °F - 61.0 °F 75% 30.21 in 10.0 mi ENE 6.9 mph - N/A   Overcast
8:53 AM 70.0 °F - 62.1 °F 76% 30.23 in 10.0 mi East 6.9 mph - N/A   Overcast
9:53 AM 73.0 °F - 62.1 °F 68% 30.24 in 10.0 mi ENE 8.1 mph - N/A   Scattered Clouds
10:53 AM 77.0 °F - 64.9 °F 66% 30.24 in 10.0 mi East 9.2 mph - N/A   Clear
11:53 AM 79.0 °F - 66.0 °F 64% 30.22 in 10.0 mi East 8.1 mph - N/A   Mostly Cloudy
12:53 PM 81.0 °F 83.0 °F 66.0 °F 60% 30.19 in 10.0 mi ESE 12.7 mph - N/A   Overcast
1:53 PM 81.0 °F 83.0 °F 66.0 °F 60% 30.17 in 10.0 mi East 8.1 mph - N/A   Mostly Cloudy
2:53 PM 82.0 °F 84.1 °F 66.0 °F 58% 30.16 in 10.0 mi East 10.4 mph - N/A   Overcast
3:53 PM 78.8 °F - 66.2 °F 65% 30.16 in 10.0 mi East 9.2 mph - N/A   Overcast
4:53 PM 77.0 °F - 66.0 °F 69% 30.17 in 10.0 mi East 8.1 mph - N/A   Overcast
5:53 PM 75.0 °F - 66.9 °F 76% 30.18 in 10.0 mi East 8.1 mph - N/A   Partly Cloudy
6:53 PM 73.4 °F - 66.2 °F 78% 30.20 in 10.0 mi East 8.1 mph - N/A   Clear
7:53 PM 73.4 °F - 66.2 °F 78% 30.22 in 10.0 mi East 6.9 mph - N/A   Partly Cloudy
8:53 PM 73.0 °F - 66.0 °F 79% 30.22 in 10.0 mi East 8.1 mph - N/A   Clear
9:53 PM 71.6 °F - 66.2 °F 83% 30.22 in 10.0 mi East 9.2 mph - N/A   Clear
10:53 PM 71.1 °F - 66.0 °F 84% 30.22 in 10.0 mi East 6.9 mph - N/A   Clear
11:53 PM 71.6 °F - 66.2 °F 83% 30.21 in 10.0 mi East 6.9 mph - N/A   Clear